sat.trackr.live / text

‹ back to catalog

STARLINK-36502

NORAD 67627 · 2026-020L

PAYLOAD ACTIVE UNKNOWN

§ Identity

Operator
Country
US
Launch date
2026-01-30
Launch site
AFETR
Launch vehicle
Mass (kg)
RCS (m²)

Purposes: comms

External: N2YO · Heavens-Above · Gunter

§ Orbital elements

Epoch: 2026-09-19T00:42:37.598112Z

Period
94.27 min
Inclination
43.0025°
Eccentricity
0.0001431
Mean motion
15.27588652 rev/d
Perigee alt
482.0 km
Apogee alt
484.0 km
Semi-major
6,861.2 km
B*
3.8677e-4
RAAN
127.8006°
Arg perigee
276.7198°
Mean anomaly
83.3491°
Rev number
3,568

§ Raw data

STARLINK-365021 67627U 26020L   26262.02960183  .00010399  00000+0  38677-3 0  99902 67627  43.0025 127.8006 0001431 276.7198  83.3491 15.27588652 35686

JSON: /api/v1/satellites/67627 · /tle

For live sub-satellite position, see the globe view (requires WebGL).

§ Visibility from observer

Set your observer location to see the next 7 days of passes ≥ 10°. The values pass through the URL so the page stays shareable.

No JS? Fill the form by hand. The geolocation button needs JavaScript.